GW4351 Weather Reports


time (UTC)temp
F
wind
direction
speed
knots
gust
knots
rain 1hr
in
rain 24hr
in
rain mn
in
humidity
%
barometer
mb
20260504211059 70 349 7.8 19.1 0.00 0.00 0.00 36 1008.9
20260504210559 65 12 8.7 17.4 0.00 0.00 0.00 39 1008.8
20260504205559 61 26 7.8 17.4 0.00 0.00 0.00 45 1009.0
20260504205101 62 343 5.2 16.5 0.00 0.00 0.00 42 1009.2
20260504204606 64 5 7.8 16.5 0.00 0.00 0.00 35 1009.4
20260504204058 67 48 6.1 16.5 0.00 0.00 0.00 30 1009.4
20260504203601 69 319 2.6 13.0 0.00 0.00 0.00 27 1009.2
20260504203107 72 105 5.2 13.0 0.00 0.00 0.00 26 1008.7
20260504202558 70 175 4.3 12.2 0.00 0.00 0.00 29 1008.5
20260504202059 69 134 4.3 14.8 0.00 0.00 0.00 30 1008.4
20260504201621 68 217 6.1 14.8 0.00 0.00 0.00 28 1008.3
20260504201058 68 178 5.2 11.3 0.00 0.00 0.00 29 1008.3
20260504200559 68 159 3.5 13.0 0.00 0.00 0.00 29 1008.5
20260504200111 69 188 7.0 22.6 0.00 0.00 0.00 27 1008.5
20260504195603 70 214 7.0 22.6 0.00 0.00 0.00 23 1008.3
20260504195059 71 286 4.3 9.6 0.00 0.00 0.00 25 1008.3
20260504194612 72 317 4.3 9.6 0.00 0.00 0.00 24 1008.2
20260504194059 73 327 3.5 7.8 0.00 0.00 0.00 22 1008.1
20260504193559 73 295 1.7 10.4 0.00 0.00 0.00 19 1007.9
20260504193113 73 261 2.6 10.4 0.00 0.00 0.00 19 1008.0
20260504192558 74 275 5.2 10.4 0.00 0.00 0.00 18 1007.9
20260504192104 73 266 3.5 9.6 0.00 0.00 0.00 19 1007.8
20260504191608 72 261 6.1 9.6 0.00 0.00 0.00 18 1007.8
20260504191059 72 311 3.5 10.4 0.00 0.00 0.00 19 1007.8
20260504190559 71 273 3.5 10.4 0.00 0.00 0.00 20 1008.0
20260504190116 72 268 5.2 11.3 0.00 0.00 0.00 20 1007.9
20260504185600 71 272 5.2 11.3 0.00 0.00 0.00 21 1008.0
20260504185059 72 277 8.7 14.8 0.00 0.00 0.00 20 1008.0
20260504184626 73 271 8.7 14.8 0.00 0.00 0.00 20 1008.0
20260504184059 74 293 7.8 14.8 0.00 0.00 0.00 19 1008.1
20260504183602 74 264 8.7 14.8 0.00 0.00 0.00 21 1008.2
20260504183100 73 287 7.8 14.8 0.00 0.00 0.00 23 1008.3
20260504182559 73 291 10.4 15.6 0.00 0.00 0.00 24 1008.3
20260504182101 73 330 11.3 15.6 0.00 0.00 0.00 24 1008.4
20260504181603 71 265 9.6 14.8 0.00 0.00 0.00 24 1008.6
20260504181102 71 283 9.6 14.8 0.00 0.00 0.00 24 1008.7
20260504180604 71 281 7.8 16.5 0.00 0.00 0.00 25 1008.7
20260504175559 70 245 8.7 15.6 0.00 0.00 0.00 25 1008.8
20260504175059 71 239 9.6 16.5 0.00 0.00 0.00 26 1008.9
20260504174602 71 279 10.4 17.4 0.00 0.00 0.00 26 1009.0
20260504174102 70 267 10.4 18.2 0.00 0.00 0.00 27 1009.1
20260504173559 69 251 11.3 18.2 0.00 0.00 0.00 27 1009.2
20260504173101 69 284 10.4 18.2 0.00 0.00 0.00 27 1009.3
20260504172601 69 292 8.7 16.5 0.00 0.00 0.00 28 1009.5
20260504172100 68 283 8.7 16.5 0.00 0.00 0.00 28 1009.6
20260504171613 67 287 10.4 16.5 0.00 0.00 0.00 28 1009.6
20260504171102 67 275 7.8 13.0 0.00 0.00 0.00 29 1009.7
20260504170603 66 271 7.8 13.0 0.00 0.00 0.00 29 1009.8
20260504160106 64 281 5.2 13.9 0.00 0.00 0.00 30 1009.7
20260504151058 63 286 6.1 9.6 0.00 0.00 0.00 29 1009.8
20260504150558 63 284 6.1 9.6 0.00 0.00 0.00 29 1009.8
20260504141058 60 272 6.1 7.8 0.00 0.00 0.00 28 1010.0
20260504140558 59 261 4.3 7.0 0.00 0.00 0.00 29 1010.0
20260504140112 58 260 3.5 7.0 0.00 0.00 0.00 31 1009.9
20260504130602 46 0 0.0 0.9 0.00 0.00 0.00 57 1009.9
20260504120120 44 133 0.0 0.9 0.00 0.00 0.00 56 1009.6
20260504110559 45 0 0.0 0.9 0.00 0.00 0.00 54 1009.6
20260504110107 44 0 0.0 1.7 0.00 0.00 0.00 55 1009.7
20260504100559 44 0 0.0 1.7 0.00 0.00 0.00 53 1010.1
20260504100105 44 135 0.0 1.7 0.00 0.00 0.00 53 1010.1
20260504090106 44 42 0.0 1.7 0.00 0.00 0.00 52 1010.3
20260504081558 46 0 0.0 0.9 0.00 0.00 0.00 48 1010.7
20260504081058 47 0 0.0 1.7 0.00 0.00 0.00 48 1010.8
20260504080605 47 0 0.0 2.6 0.00 0.00 0.00 47 1010.8
20260504060106 51 0 0.0 5.2 0.00 0.00 0.00 42 1011.7
20260504050601 55 324 2.6 5.2 0.00 0.00 0.00 33 1011.7
20260504050107 56 315 1.7 10.4 0.00 0.00 0.00 32 1011.7
20260504045559 58 322 2.6 10.4 0.00 0.00 0.00 31 1011.7
20260504045101 58 23 1.7 5.2 0.00 0.00 0.00 32 1011.7
20260504044601 60 275 1.7 3.5 0.00 0.00 0.00 30 1011.3
20260504044058 60 294 1.7 6.1 0.00 0.00 0.00 30 1011.2
20260504043558 60 277 1.7 6.1 0.00 0.00 0.00 30 1011.3
20260504043116 61 277 0.9 6.1 0.00 0.00 0.00 29 1011.2
20260504042559 61 295 1.7 6.1 0.00 0.00 0.00 30 1011.3
20260504042058 61 279 3.5 6.1 0.00 0.00 0.00 30 1011.4
20260504041559 61 269 2.6 7.0 0.00 0.00 0.00 30 1011.4
20260504041057 61 269 3.5 8.7 0.00 0.00 0.00 30 1011.5
20260504040600 61 277 2.6 8.7 0.00 0.00 0.00 29 1011.6
20260504040103 62 286 2.6 7.8 0.00 0.00 0.00 29 1011.5
20260504035601 62 278 3.5 7.8 0.00 0.00 0.00 29 1011.5
20260504035102 62 279 3.5 8.7 0.00 0.00 0.00 29 1011.7
20260504034559 63 254 4.3 8.7 0.00 0.00 0.00 28 1011.6
20260504034058 63 265 3.5 7.8 0.00 0.00 0.00 28 1011.7
20260504033559 63 279 4.3 7.8 0.00 0.00 0.00 28 1011.6
20260504033116 63 264 1.7 6.1 0.00 0.00 0.00 29 1011.6
20260504032601 63 207 1.7 7.0 0.00 0.00 0.00 28 1011.7
20260504032059 64 240 2.6 7.0 0.00 0.00 0.00 28 1011.7
20260504031605 64 198 1.7 7.0 0.00 0.00 0.00 27 1011.7
20260504031101 64 246 1.7 7.0 0.00 0.00 0.00 27 1011.7
20260504030602 64 265 2.6 8.7 0.00 0.00 0.00 26 1011.6
20260504030100 65 271 3.5 8.7 0.00 0.00 0.00 26 1011.5
20260504025600 65 265 4.3 8.7 0.00 0.00 0.00 26 1011.5
20260504025058 65 250 3.5 9.6 0.00 0.00 0.00 26 1011.5
20260504024603 65 270 3.5 9.6 0.00 0.00 0.00 25 1011.5
20260504024105 65 248 5.2 9.6 0.00 0.00 0.00 25 1011.5
20260504023559 65 267 4.3 7.8 0.00 0.00 0.00 25 1011.5
20260504023101 65 263 4.3 7.8 0.00 0.00 0.00 25 1011.3
20260504022601 65 264 4.3 7.8 0.00 0.00 0.00 25 1011.4
20260504022058 65 275 2.6 7.0 0.00 0.00 0.00 25 1011.4
20260504021558 65 265 3.5 7.0 0.00 0.00 0.00 25 1011.4
20260504021058 65 269 3.5 7.0 0.00 0.00 0.00 25 1011.3
20260504020558 65 235 2.6 7.0 0.00 0.00 0.00 25 1011.3
20260504020100 65 240 1.7 5.2 0.00 0.00 0.00 25 1011.3
20260504015600 65 273 0.9 2.6 0.00 0.00 0.00 25 1011.3
20260504015101 65 0 0.0 2.6 0.00 0.00 0.00 26 1011.1
20260504014602 66 0 0.0 5.2 0.00 0.00 0.00 26 1011.1
20260504014100 66 263 1.7 5.2 0.00 0.00 0.00 26 1011.1
20260504013601 66 268 1.7 3.5 0.00 0.00 0.00 25 1011.1
20260504013109 66 281 1.7 7.0 0.00 0.00 0.00 24 1011.1
20260504012600 67 286 3.5 7.0 0.00 0.00 0.00 24 1011.1
20260504012101 67 292 2.6 8.7 0.00 0.00 0.00 24 1011.1
20260504011601 67 317 3.5 8.7 0.00 0.00 0.00 23 1011.1
20260504011058 67 300 2.6 8.7 0.00 0.00 0.00 24 1011.2
20260504010558 68 278 5.2 9.6 0.00 0.00 0.00 23 1011.3
20260504005559 69 280 8.7 16.5 0.00 0.00 0.00 22 1011.4
20260504005059 69 281 10.4 16.5 0.00 0.00 0.00 23 1011.6
20260504004622 69 271 10.4 15.6 0.00 0.00 0.00 23 1011.6
20260504004059 68 279 7.8 11.3 0.00 0.00 0.00 24 1011.7
20260504003558 68 271 6.1 11.3 0.00 0.00 0.00 24 1011.7
20260504003103 68 327 7.0 10.4 0.00 0.00 0.00 23 1011.7
20260504002558 68 283 5.2 9.6 0.00 0.00 0.00 24 1011.8
20260504002102 68 244 3.5 7.8 0.00 0.00 0.00 24 1011.8
20260504001608 68 250 1.7 5.2 0.00 0.00 0.00 25 1011.9
20260504001102 68 270 2.6 7.0 0.00 0.00 0.00 24 1011.9
20260504000558 68 217 1.7 11.3 0.00 0.00 0.00 24 1011.9
20260503235601 68 224 7.0 17.4 0.00 0.00 0.00 24 1012.0
20260503235103 69 251 6.1 13.9 0.00 0.00 0.00 24 1012.2
20260503234559 68 254 7.0 13.9 0.00 0.00 0.00 23 1012.2
20260503234059 68 284 7.0 15.6 0.00 0.00 0.00 24 1012.2
20260503233600 69 276 9.6 18.2 0.00 0.00 0.00 23 1012.1
20260503233059 69 331 6.1 18.2 0.00 0.00 0.00 21 1012.1
20260503232559 70 314 8.7 18.2 0.00 0.00 0.00 20 1011.9
20260503232100 71 289 6.1 11.3 0.00 0.00 0.00 20 1011.9
20260503231559 71 288 6.1 13.0 0.00 0.00 0.00 20 1011.8
20260503231101 72 296 7.8 13.0 0.00 0.00 0.00 19 1011.8
20260503230559 73 229 3.5 8.7 0.00 0.00 0.00 20 1011.8
20260503230112 74 257 5.2 10.4 0.00 0.00 0.00 20 1011.9
20260503225559 74 273 6.1 14.8 0.00 0.00 0.00 20 1011.9
20260503225100 72 297 9.6 14.8 0.00 0.00 0.00 20 1011.8
20260503224558 72 274 6.1 20.0 0.00 0.00 0.00 20 1011.8
20260503224059 73 267 10.4 20.0 0.00 0.00 0.00 19 1011.8
20260503223559 73 267 12.2 20.0 0.00 0.00 0.00 19 1011.7
20260503223101 70 325 5.2 12.2 0.00 0.00 0.00 21 1011.8
20260503222559 70 286 6.1 13.0 0.00 0.00 0.00 20 1011.8
20260503222101 71 284 7.0 16.5 0.00 0.00 0.00 20 1011.9
20260503221605 71 275 9.6 16.5 0.00 0.00 0.00 20 1011.8
20260503221103 72 273 7.8 16.5 0.00 0.00 0.00 19 1011.8
20260503220559 72 290 0.9 8.7 0.00 0.00 0.00 17 1011.8
20260503215559 70 219 3.5 25.2 0.00 0.00 0.00 20 1011.9
20260503215058 69 244 7.8 25.2 0.00 0.00 0.00 21 1012.3
20260503214610 70 269 11.3 20.9 0.00 0.00 0.00 21 1012.0
20260503214059 71 285 10.4 15.6 0.00 0.00 0.00 18 1012.2
20260503213559 72 272 5.2 10.4 0.00 0.00 0.00 16 1012.1
20260503213103 72 319 1.7 7.8 0.00 0.00 0.00 15 1012.1
20260503212559 73 338 2.6 7.8 0.00 0.00 0.00 15 1012.1
20260503212059 74 274 4.3 7.8 0.00 0.00 0.00 15 1012.1
20260503211605 75 336 4.3 13.0 0.00 0.00 0.00 15 1012.0